Tracking 19709 objects as of 18-Jun-2019
HD Live streaming from Space Station
objects crossing your sky now

COSMOS 1808

Track COSMOS 1808 now!
10-day predictions
COSMOS 1808 is classified as:


NORAD ID: 17239
Int'l Code: 1986-100A
Perigee: 974.4 km
Apogee: 1,024.7 km
Inclination: 82.9 °
Period: 105.0 minutes
Semi major axis: 7370 km
RCS: 2.275 m2 (large)
Launch date: December 17, 1986
Source: Commonwealth of Independent States (former USSR) (CIS)
Launch site: PLESETSK MISSILE AND SPACE COMPLEX (PKMTR)
aabbcc
Your satellite tracking list
Your tracking list is empty




NASA's NSSDC Master Catalog

Two Line Element Set (TLE):
1 17239U 86100A   19168.76252792 +.00000026 +00000-0 +12096-4 0  9992
2 17239 082.9357 258.5787 0034077 115.2621 354.9843 13.71999846626859
Source of the keplerian elements: AFSPC